Time,TemperatureF,DewpointF,PressureIn,WindDirection,WindDirectionDegrees,WindSpeedMPH,WindSpeedGustMPH,Humidity,HourlyPrecipIn,Conditions,Clouds,dailyrainin,SoftwareType,DateUTC
2013-04-17 00:02:00,46.0,37.0,30.11,NNE,20,0.0,-999.0,70,-99.99,,,-99.99,,2013-04-17 05:02:00,
2013-04-17 00:12:00,46.0,37.0,30.11,NNE,20,0.0,-999.0,70,-99.99,,,-99.99,,2013-04-17 05:12:00,
2013-04-17 00:22:00,46.0,37.0,30.11,NE,40,0.0,-999.0,71,-99.99,,,-99.99,,2013-04-17 05:22:00,
2013-04-17 00:32:00,45.0,37.0,30.11,NE,40,0.0,-999.0,72,-99.99,,,-99.99,,2013-04-17 05:32:00,
2013-04-17 00:42:00,45.0,37.0,30.11,NE,40,0.0,-999.0,72,-99.99,,,-99.99,,2013-04-17 05:42:00,
2013-04-17 00:52:00,45.0,37.0,30.12,NE,40,0.0,-999.0,72,-99.99,,,-99.99,,2013-04-17 05:52:00,
2013-04-17 01:02:00,45.0,37.0,30.12,East,90,0.0,-999.0,72,-99.99,,,-99.99,,2013-04-17 06:02:00,
2013-04-17 01:12:00,45.0,37.0,30.12,East,90,0.0,-999.0,72,-99.99,,,-99.99,,2013-04-17 06:12:00,
2013-04-17 01:22:00,45.0,37.0,30.12,East,90,0.0,-999.0,73,-99.99,,,-99.99,,2013-04-17 06:22:00,
2013-04-17 01:32:00,45.0,38.0,30.11,East,86,0.0,-999.0,75,-99.99,,,-99.99,,2013-04-17 06:32:00,
2013-04-17 01:42:00,45.0,38.0,30.11,East,86,0.0,-999.0,75,-99.99,,,-99.99,,2013-04-17 06:42:00,
2013-04-17 01:52:00,45.0,39.0,30.10,East,86,0.0,-999.0,78,-99.99,,,-99.99,,2013-04-17 06:52:00,
2013-04-17 02:02:00,44.0,38.0,30.09,East,85,0.0,-999.0,80,-99.99,,,-99.99,,2013-04-17 07:02:00,
2013-04-17 02:12:00,44.0,38.0,30.09,East,85,0.0,-999.0,80,-99.99,,,-99.99,,2013-04-17 07:12:00,
2013-04-17 02:22:00,44.0,39.0,30.08,East,85,0.0,-999.0,81,-99.99,,,-99.99,,2013-04-17 07:22:00,
2013-04-17 02:32:00,44.0,39.0,30.07,East,85,0.0,-999.0,82,-99.99,,,-99.99,,2013-04-17 07:32:00,
2013-04-17 02:42:00,44.0,39.0,30.07,East,85,0.0,-999.0,82,-99.99,,,-99.99,,2013-04-17 07:42:00,
2013-04-17 02:52:00,44.0,39.0,30.04,East,85,0.0,-999.0,83,-99.99,,,-99.99,,2013-04-17 07:52:00,
2013-04-17 03:02:00,44.0,39.0,30.03,East,85,0.0,-999.0,84,-99.99,,,-99.99,,2013-04-17 08:02:00,
2013-04-17 03:12:00,44.0,39.0,30.03,East,85,0.0,-999.0,84,-99.99,,,-99.99,,2013-04-17 08:12:00,
2013-04-17 03:22:00,44.0,39.0,30.02,East,86,0.0,-999.0,84,-99.99,,,-99.99,,2013-04-17 08:22:00,
2013-04-17 03:32:00,44.0,39.0,30.02,East,85,0.0,-999.0,84,-99.99,,,-99.99,,2013-04-17 08:32:00,
2013-04-17 03:42:00,44.0,39.0,30.02,East,85,0.0,-999.0,84,-99.99,,,-99.99,,2013-04-17 08:42:00,
2013-04-17 03:52:00,44.0,39.0,30.00,East,86,0.0,-999.0,84,-99.99,,,-99.99,,2013-04-17 08:52:00,
2013-04-17 04:02:00,44.0,39.0,29.99,East,86,0.0,-999.0,83,-99.99,,,-99.99,,2013-04-17 09:02:00,
2013-04-17 04:12:00,44.0,39.0,29.99,East,86,0.0,-999.0,83,-99.99,,,-99.99,,2013-04-17 09:12:00,
2013-04-17 04:22:00,44.0,39.0,30.01,East,84,0.0,-999.0,83,-99.99,,,-99.99,,2013-04-17 09:22:00,
2013-04-17 04:33:00,44.0,39.0,30.02,East,84,0.0,-999.0,83,-99.99,,,-99.99,,2013-04-17 09:33:00,
2013-04-17 04:42:00,44.0,39.0,30.02,East,84,0.0,-999.0,83,-99.99,,,-99.99,,2013-04-17 09:42:00,
2013-04-17 04:52:00,45.0,40.0,30.00,East,84,0.0,-999.0,82,-99.99,,,-99.99,,2013-04-17 09:52:00,
2013-04-17 05:02:00,45.0,40.0,29.98,East,81,0.0,-999.0,82,-99.99,,,-99.99,,2013-04-17 10:02:00,
2013-04-17 05:12:00,45.0,40.0,29.98,East,81,0.0,-999.0,82,-99.99,,,-99.99,,2013-04-17 10:12:00,
2013-04-17 05:23:00,45.0,40.0,29.98,East,81,0.0,-999.0,82,-99.99,,,-99.99,,2013-04-17 10:23:00,
2013-04-17 05:32:00,44.0,39.0,29.96,East,81,0.0,-999.0,83,-99.99,,,-99.99,,2013-04-17 10:32:00,
2013-04-17 05:42:00,44.0,39.0,29.96,East,81,0.0,-999.0,83,-99.99,,,-99.99,,2013-04-17 10:42:00,
2013-04-17 05:52:00,45.0,40.0,29.96,East,81,0.0,-999.0,84,-99.99,,,-99.99,,2013-04-17 10:52:00,
2013-04-17 06:02:00,44.0,40.0,29.95,East,81,0.0,-999.0,85,-99.99,,,-99.99,,2013-04-17 11:02:00,
2013-04-17 06:12:00,44.0,40.0,29.95,East,81,0.0,-999.0,85,-99.99,,,-99.99,,2013-04-17 11:12:00,
2013-04-17 06:22:00,44.0,40.0,29.94,East,81,0.0,-999.0,85,-99.99,,,-99.99,,2013-04-17 11:22:00,
2013-04-17 06:32:00,44.0,40.0,29.93,East,81,0.0,-999.0,85,-99.99,,,-99.99,,2013-04-17 11:32:00,
2013-04-17 06:42:00,44.0,40.0,29.93,East,81,0.0,-999.0,85,-99.99,,,-99.99,,2013-04-17 11:42:00,
2013-04-17 06:52:00,44.0,40.0,29.92,East,83,0.0,-999.0,86,-99.99,,,-99.99,,2013-04-17 11:52:00,
2013-04-17 07:02:00,45.0,41.0,29.91,ESE,105,0.0,-999.0,86,-99.99,,,-99.99,,2013-04-17 12:02:00,
2013-04-17 07:12:00,45.0,41.0,29.91,ESE,105,0.0,-999.0,86,-99.99,,,-99.99,,2013-04-17 12:12:00,
2013-04-17 07:22:00,45.0,41.0,29.89,SSE,161,1.0,-999.0,87,-99.99,,,-99.99,,2013-04-17 12:22:00,
2013-04-17 07:32:00,45.0,41.0,29.91,SE,136,2.0,-999.0,87,-99.99,,,-99.99,,2013-04-17 12:32:00,
2013-04-17 07:42:00,45.0,41.0,29.91,SE,136,2.0,-999.0,87,-99.99,,,-99.99,,2013-04-17 12:42:00,
2013-04-17 07:52:00,46.0,42.0,29.95,North,360,1.0,-999.0,87,-99.99,,,-99.99,,2013-04-17 12:52:00,
2013-04-17 08:02:00,46.0,42.0,29.95,North,360,0.0,-999.0,87,-99.99,,,-99.99,,2013-04-17 13:02:00,
2013-04-17 08:12:00,46.0,42.0,29.95,North,360,0.0,-999.0,87,-99.99,,,-99.99,,2013-04-17 13:12:00,
2013-04-17 08:22:00,45.0,42.0,29.90,North,360,0.0,-999.0,88,-99.99,,,-99.99,,2013-04-17 13:22:00,
2013-04-17 08:32:00,45.0,42.0,29.94,North,360,0.0,-999.0,90,-99.99,,,-99.99,,2013-04-17 13:32:00,
2013-04-17 08:42:00,45.0,42.0,29.94,North,360,0.0,-999.0,90,-99.99,,,-99.99,,2013-04-17 13:42:00,
2013-04-17 08:52:00,45.0,43.0,29.93,North,360,0.0,-999.0,91,-99.99,,,-99.99,,2013-04-17 13:52:00,
2013-04-17 09:02:00,45.0,43.0,29.94,North,360,0.0,-999.0,91,-99.99,,,-99.99,,2013-04-17 14:02:00,
2013-04-17 09:12:00,45.0,43.0,29.94,North,360,0.0,-999.0,91,-99.99,,,-99.99,,2013-04-17 14:12:00,
2013-04-17 09:22:00,45.0,43.0,29.94,North,360,0.0,-999.0,92,-99.99,,,-99.99,,2013-04-17 14:22:00,
2013-04-17 09:32:00,45.0,43.0,29.92,North,5,2.0,-999.0,92,-99.99,,,-99.99,,2013-04-17 14:32:00,
2013-04-17 09:42:00,45.0,43.0,29.93,North,5,6.0,-999.0,92,-99.99,,,-99.99,,2013-04-17 14:42:00,
2013-04-17 09:52:00,45.0,43.0,29.93,North,5,6.0,-999.0,92,-99.99,,,-99.99,,2013-04-17 14:52:00,
2013-04-17 10:02:00,45.0,43.0,29.95,North,5,5.0,-999.0,93,-99.99,,,-99.99,,2013-04-17 15:02:00,
2013-04-17 10:12:00,44.0,42.0,29.94,North,9,4.0,-999.0,93,-99.99,,,-99.99,,2013-04-17 15:12:00,
2013-04-17 10:22:00,44.0,42.0,29.94,North,9,4.0,-999.0,93,-99.99,,,-99.99,,2013-04-17 15:22:00,
2013-04-17 10:33:00,45.0,43.0,29.92,North,9,0.0,-999.0,93,-99.99,,,-99.99,,2013-04-17 15:33:00,
2013-04-17 10:42:00,45.0,43.0,29.92,North,9,0.0,-999.0,93,-99.99,,,-99.99,,2013-04-17 15:42:00,
2013-04-17 10:53:00,45.0,43.0,29.90,North,5,0.0,-999.0,94,-99.99,,,-99.99,,2013-04-17 15:53:00,
2013-04-17 11:03:00,45.0,43.0,29.90,North,5,0.0,-999.0,94,-99.99,,,-99.99,,2013-04-17 16:03:00,
2013-04-17 11:12:00,45.0,43.0,29.90,North,5,0.0,-999.0,94,-99.99,,,-99.99,,2013-04-17 16:12:00,
2013-04-17 11:22:00,45.0,43.0,29.89,North,5,0.0,-999.0,94,-99.99,,,-99.99,,2013-04-17 16:22:00,
2013-04-17 11:32:00,46.0,44.0,29.90,North,5,0.0,-999.0,94,-99.99,,,-99.99,,2013-04-17 16:32:00,
2013-04-17 11:42:00,46.0,44.0,29.90,North,5,0.0,-999.0,94,-99.99,,,-99.99,,2013-04-17 16:42:00,
2013-04-17 11:52:00,46.0,44.0,29.90,North,5,0.0,-999.0,94,-99.99,,,-99.99,,2013-04-17 16:52:00,
2013-04-17 12:02:00,46.0,44.0,29.90,North,5,0.0,-999.0,94,-99.99,,,-99.99,,2013-04-17 17:02:00,
2013-04-17 12:12:00,46.0,44.0,29.90,North,5,0.0,-999.0,94,-99.99,,,-99.99,,2013-04-17 17:12:00,
2013-04-17 12:22:00,46.0,44.0,29.90,North,5,0.0,-999.0,94,-99.99,,,-99.99,,2013-04-17 17:22:00,
2013-04-17 12:33:00,46.0,44.0,29.87,North,9,0.0,-999.0,94,-99.99,,,-99.99,,2013-04-17 17:33:00,
2013-04-17 12:42:00,46.0,44.0,29.87,North,9,0.0,-999.0,94,-99.99,,,-99.99,,2013-04-17 17:42:00,
2013-04-17 12:52:00,47.0,46.0,29.85,North,9,0.0,-999.0,95,-99.99,,,-99.99,,2013-04-17 17:52:00,
2013-04-17 13:02:00,47.0,46.0,29.84,North,9,0.0,-999.0,95,-99.99,,,-99.99,,2013-04-17 18:02:00,
2013-04-17 13:12:00,47.0,46.0,29.84,North,9,0.0,-999.0,95,-99.99,,,-99.99,,2013-04-17 18:12:00,
2013-04-17 13:22:00,47.0,46.0,29.83,North,9,0.0,-999.0,95,-99.99,,,-99.99,,2013-04-17 18:22:00,
2013-04-17 13:32:00,47.0,46.0,29.83,North,9,0.0,-999.0,95,-99.99,,,-99.99,,2013-04-17 18:32:00,
2013-04-17 13:42:00,47.0,46.0,29.83,North,9,0.0,-999.0,95,-99.99,,,-99.99,,2013-04-17 18:42:00,
2013-04-17 13:52:00,47.0,46.0,29.83,North,9,0.0,-999.0,95,-99.99,,,-99.99,,2013-04-17 18:52:00,
2013-04-17 14:02:00,47.0,46.0,29.85,North,9,0.0,-999.0,95,-99.99,,,-99.99,,2013-04-17 19:02:00,
2013-04-17 14:12:00,47.0,46.0,29.85,North,9,0.0,-999.0,95,-99.99,,,-99.99,,2013-04-17 19:12:00,
2013-04-17 14:22:00,47.0,46.0,29.84,North,9,0.0,-999.0,95,-99.99,,,-99.99,,2013-04-17 19:22:00,
2013-04-17 14:32:00,48.0,47.0,29.83,North,9,0.0,-999.0,95,-99.99,,,-99.99,,2013-04-17 19:32:00,
2013-04-17 14:42:00,48.0,47.0,29.81,North,9,0.0,-999.0,95,-99.99,,,-99.99,,2013-04-17 19:42:00,
2013-04-17 14:52:00,48.0,47.0,29.81,North,9,0.0,-999.0,95,-99.99,,,-99.99,,2013-04-17 19:52:00,
2013-04-17 15:02:00,48.0,47.0,29.81,North,9,0.0,-999.0,95,-99.99,,,-99.99,,2013-04-17 20:02:00,
2013-04-17 15:12:00,48.0,47.0,29.81,North,9,0.0,-999.0,95,-99.99,,,-99.99,,2013-04-17 20:12:00,
2013-04-17 15:22:00,47.0,46.0,29.79,North,9,0.0,-999.0,95,-99.99,,,-99.99,,2013-04-17 20:22:00,
2013-04-17 15:32:00,48.0,47.0,29.77,North,9,0.0,-999.0,95,-99.99,,,-99.99,,2013-04-17 20:32:00,
2013-04-17 15:42:00,48.0,47.0,29.77,North,9,0.0,-999.0,95,-99.99,,,-99.99,,2013-04-17 20:42:00,
2013-04-17 15:52:00,48.0,47.0,29.77,North,9,0.0,-999.0,95,-99.99,,,-99.99,,2013-04-17 20:52:00,
2013-04-17 16:02:00,47.0,46.0,29.75,North,9,0.0,-999.0,95,-99.99,,,-99.99,,2013-04-17 21:02:00,
2013-04-17 16:12:00,47.0,46.0,29.75,North,9,0.0,-999.0,95,-99.99,,,-99.99,,2013-04-17 21:12:00,
2013-04-17 16:22:00,47.0,46.0,29.74,North,9,0.0,-999.0,95,-99.99,,,-99.99,,2013-04-17 21:22:00,
2013-04-17 16:33:00,47.0,46.0,29.74,North,9,0.0,-999.0,95,-99.99,,,-99.99,,2013-04-17 21:33:00,
2013-04-17 16:42:00,47.0,46.0,29.74,North,9,0.0,-999.0,95,-99.99,,,-99.99,,2013-04-17 21:42:00,
2013-04-17 16:53:00,47.0,46.0,29.75,North,5,0.0,-999.0,95,-99.99,,,-99.99,,2013-04-17 21:53:00,
2013-04-17 17:02:00,47.0,46.0,29.73,North,5,0.0,-999.0,95,-99.99,,,-99.99,,2013-04-17 22:02:00,
2013-04-17 17:12:00,47.0,46.0,29.73,North,5,0.0,-999.0,95,-99.99,,,-99.99,,2013-04-17 22:12:00,
2013-04-17 17:22:00,47.0,46.0,29.73,North,5,0.0,-999.0,95,-99.99,,,-99.99,,2013-04-17 22:22:00,
2013-04-17 17:33:00,47.0,46.0,29.74,North,5,0.0,-999.0,95,-99.99,,,-99.99,,2013-04-17 22:33:00,
2013-04-17 17:42:00,47.0,46.0,29.75,North,5,0.0,-999.0,95,-99.99,,,-99.99,,2013-04-17 22:42:00,
2013-04-17 17:53:00,47.0,46.0,29.75,North,5,0.0,-999.0,95,-99.99,,,-99.99,,2013-04-17 22:53:00,
2013-04-17 18:02:00,47.0,46.0,29.79,NNW,340,1.0,-999.0,95,-99.99,,,-99.99,,2013-04-17 23:02:00,
2013-04-17 18:12:00,47.0,46.0,29.75,North,5,5.0,-999.0,95,-99.99,,,-99.99,,2013-04-17 23:12:00,
2013-04-17 18:22:00,47.0,46.0,29.75,North,5,5.0,-999.0,95,-99.99,,,-99.99,,2013-04-17 23:22:00,
2013-04-17 18:32:00,47.0,46.0,29.73,NNW,346,1.0,-999.0,95,-99.99,,,-99.99,,2013-04-17 23:32:00,
2013-04-17 18:42:00,47.0,46.0,29.70,North,9,0.0,-999.0,95,-99.99,,,-99.99,,2013-04-17 23:42:00,
2013-04-17 18:52:00,47.0,46.0,29.70,North,9,0.0,-999.0,95,-99.99,,,-99.99,,2013-04-17 23:52:00,
2013-04-17 19:02:00,47.0,46.0,29.70,North,9,0.0,-999.0,95,-99.99,,,-99.99,,2013-04-18 00:02:00,
2013-04-17 19:12:00,47.0,46.0,29.70,North,9,0.0,-999.0,95,-99.99,,,-99.99,,2013-04-18 00:12:00,
2013-04-17 19:22:00,47.0,46.0,29.70,North,9,0.0,-999.0,95,-99.99,,,-99.99,,2013-04-18 00:22:00,
2013-04-17 19:32:00,47.0,46.0,29.68,North,9,0.0,-999.0,95,-99.99,,,-99.99,,2013-04-18 00:32:00,
2013-04-17 19:42:00,47.0,46.0,29.70,NNE,13,3.0,-999.0,95,-99.99,,,-99.99,,2013-04-18 00:42:00,
2013-04-17 19:52:00,47.0,46.0,29.70,NNE,13,3.0,-999.0,95,-99.99,,,-99.99,,2013-04-18 00:52:00,
2013-04-17 20:02:00,47.0,46.0,29.67,NNE,12,4.0,-999.0,95,-99.99,,,-99.99,,2013-04-18 01:02:00,
2013-04-17 20:12:00,47.0,46.0,29.71,North,5,3.0,-999.0,95,-99.99,,,-99.99,,2013-04-18 01:12:00,
2013-04-17 20:22:00,47.0,46.0,29.71,North,5,3.0,-999.0,95,-99.99,,,-99.99,,2013-04-18 01:22:00,
2013-04-17 20:32:00,47.0,46.0,29.67,North,5,3.0,-999.0,95,-99.99,,,-99.99,,2013-04-18 01:32:00,
2013-04-17 20:42:00,47.0,46.0,29.67,North,5,3.0,-999.0,95,-99.99,,,-99.99,,2013-04-18 01:42:00,
2013-04-17 20:52:00,47.0,46.0,29.67,North,5,3.0,-999.0,95,-99.99,,,-99.99,,2013-04-18 01:52:00,
2013-04-17 21:02:00,47.0,46.0,29.67,North,5,3.0,-999.0,95,-99.99,,,-99.99,,2013-04-18 02:02:00,
2013-04-17 21:12:00,47.0,46.0,29.73,NNW,339,1.0,-999.0,95,-99.99,,,-99.99,,2013-04-18 02:12:00,
2013-04-17 21:22:00,47.0,46.0,29.73,NNW,339,1.0,-999.0,95,-99.99,,,-99.99,,2013-04-18 02:22:00,
2013-04-17 21:32:00,47.0,46.0,29.74,NNW,339,0.0,-999.0,95,-99.99,,,-99.99,,2013-04-18 02:32:00,
2013-04-17 21:42:00,47.0,46.0,29.74,NNW,339,0.0,-999.0,95,-99.99,,,-99.99,,2013-04-18 02:42:00,
2013-04-17 21:52:00,47.0,46.0,29.74,NNW,339,0.0,-999.0,95,-99.99,,,-99.99,,2013-04-18 02:52:00,
2013-04-17 22:02:00,46.0,45.0,29.75,NNW,348,1.0,-999.0,95,-99.99,,,-99.99,,2013-04-18 03:02:00,
2013-04-17 22:12:00,45.0,44.0,29.75,NNW,346,4.0,-999.0,95,-99.99,,,-99.99,,2013-04-18 03:12:00,
2013-04-17 22:22:00,45.0,44.0,29.75,NNW,346,4.0,-999.0,95,-99.99,,,-99.99,,2013-04-18 03:22:00,
2013-04-17 22:33:00,45.0,44.0,29.74,NNW,346,4.0,-999.0,95,-99.99,,,-99.99,,2013-04-18 03:33:00,
2013-04-17 22:43:00,44.0,43.0,29.72,NNW,346,5.0,-999.0,95,-99.99,,,-99.99,,2013-04-18 03:43:00,
2013-04-17 22:53:00,44.0,43.0,29.72,NNW,346,5.0,-999.0,95,-99.99,,,-99.99,,2013-04-18 03:53:00,
2013-04-17 23:03:00,44.0,43.0,29.71,NNW,348,5.0,-999.0,95,-99.99,,,-99.99,,2013-04-18 04:03:00,
2013-04-17 23:13:00,44.0,43.0,29.71,NNW,348,5.0,-999.0,95,-99.99,,,-99.99,,2013-04-18 04:13:00,
2013-04-17 23:23:00,44.0,43.0,29.71,North,349,3.0,-999.0,95,-99.99,,,-99.99,,2013-04-18 04:23:00,
2013-04-17 23:33:00,43.0,42.0,29.70,North,355,0.0,-999.0,96,-99.99,,,-99.99,,2013-04-18 04:33:00,
2013-04-17 23:43:00,43.0,42.0,29.65,North,5,3.0,-999.0,95,-99.99,,,-99.99,,2013-04-18 04:43:00,
2013-04-17 23:53:00,43.0,42.0,29.65,North,5,3.0,-999.0,95,-99.99,,,-99.99,,2013-04-18 04:53:00,